Find Starlink 3972

NORAD ID: 52669 Int'l Des: 2022-053 Owner: SPXS Country: US Constellation: starlink operational
LEOCIRCULAR

当前视图

正在加载3D地球...

About Starlink 3972

Starlink 3972 (NORAD 52669) is a starlink constellation satellite (v1.5) launched May 18, 2022 by SPXS of US. It operates in LEO, CIRCULAR orbit with a mass of 297.00 kg.

关于 Starlink 3972

正在加载描述...

即将过境

Passes for default location (London). Set your location on the main map for personalized predictions.

高度历史

Loading altitude history...

两行轨道根数

1 52669U 22053P 26166.94733730 .00002001 00000-0 14383-3 0 9992
2 52669 53.1603 72.9385 0001399 90.9470 269.1682 15.08818157225875
Epoch: Jun 15, 2026 • Age: 9 hours

当前状态

高度 550.5 km
速度 7.59 km/s
星下点 -32.32°S, 100.14°W
发射日期 May 18, 2022
运行时间 4 years
类型 internet

技术详情

分类 Payload
质量 297.00 kg
干质量 275.00 kg
总质量 297.00 kg
长度 0.20 m
直径 2.80 m
跨度 9.00 m
形状 Box + pan
制造商 SPXS
平台类型 Starlink
阶段状态 In Orbit
所有者/国家 SPXS/US

Most Searched